Regional Weather Roundup
Issued by NWS

Home | Current Version | Previous Version | Graphics & Text | Print | Product List | Glossary On
Versions: 1 2 3 4 5 6 7 8 9 10 11 12 13 14 15 16 17 18 19 20 21 22 23 24 25 26 27 28 29 30 31 32 33 34 35 36 37 38 39 40 41 42 43 44 45 46 47 48 49 50
000
ASUS43 KLOT 041521
RWRIL

ILLINOIS REGIONAL WEATHER ROUNDUP
NATIONAL WEATHER SERVICE CHICAGO/ROMEOVILLE IL
1000 AM CDT SAT JUL 04 2015

NOTE: "FAIR" INDICATES FEW OR NO CLOUDS BELOW 12,000 FEET WITH NO
SIGNIFICANT WEATHER AND/OR OBSTRUCTIONS TO VISIBILITY.

* THESE STATIONS ARE NOT UNDER NWS QUALITY CONTROL. THEY ALSO MAY NOT
  REPORT WEATHER SUCH AS PRECIPITATION OR FOG.

ILZ001-002-007-009-015-016-024-041600-
NORTHWEST ILLINOIS

CITY           SKY/WX    TMP DP  RH WIND       PRES   REMARKS
MOLINE         SUNNY     75  58  55 NW3       30.02R
STERLING*      SUNNY     75  61  60 SW3       30.02R
SAVANNA*       SUNNY     72  58  62 CALM      30.01S
$$

ILZ003-004-008-010-011-017-018-041600-
NORTH CENTRAL ILLINOIS

CITY           SKY/WX    TMP DP  RH WIND       PRES   REMARKS
ROCKFORD       SUNNY     75  58  55 W6        30.01S
FREEPORT*      SUNNY     71  60  67 W3        30.02S
ROCHELLE*      SUNNY     71  58  64 CALM      30.02S
DE KALB*       SUNNY     70  57  63 W5        30.02S
PERU*          SUNNY     71  59  65 CALM      30.03S
$$

ILZ005-006-012>014-019>023-041600-
NORTHEAST ILLINOIS

CITY           SKY/WX    TMP DP  RH WIND       PRES   REMARKS
CHICAGO-OHARE  SUNNY     73  55  53 W6        30.00R
CHICAGO-MIDWAY SUNNY     76  55  48 NW3       30.00R
AURORA         SUNNY     73  57  57 W5        30.02R
LANSING*       SUNNY     73  56  55 CALM      30.01R
JOLIET*        SUNNY     75  60  60 CALM      30.01S
WAUKEGAN       SUNNY     74  60  61 VRB3      29.99R
DUPAGE AIRPORT SUNNY     73  57  57 W6        30.00R
KANKAKEE*      SUNNY     74  62  65 CALM      30.03S
WHEELING       SUNNY     75  57  53 CALM      30.01R
MORRIS*        SUNNY     73  57  59 CALM      30.00S
ROMEOVILLE*    SUNNY     74  54  50 CALM      30.01S
NORTHERLY ISL    N/A     70  60  70 E5          N/A
$$

LMZ740>746-041600-
SOUTHERN LAKE MICHIGAN

STATION/POSITION SKY/WX   TEMP    WIND        PRES    VSBY  WAVE
                          AIR SEA DIR/SP/G                  HT/PER
                          (F)     (DEG/KT/KT) (MB)    (MI)  (FT/S)
HARRISON CRIB              69      50/  2/  2   N/A
BURNHAM HARBOR             71     110/  3/  4   N/A
CALUMET HARBOR             70      40/  4/  5   N/A
BURNS HARBOR               68     240/  2/  4 1016.6R
MICHIGAN CITY              69     250/  4/  4   N/A
MICHIGAN CITY 6N           65 65  230/  2/  2   N/A           0
ST. JOSEPH                 63 63                N/A           0
$$

ILZ025>027-034>036-040-047-049-050-058-095>099-041600-
WEST-CENTRAL ILLINOIS

CITY           SKY/WX    TMP DP  RH WIND       PRES   REMARKS
QUINCY         SUNNY     74  63  68 S5        30.04R
GALESBURG*     SUNNY     73  61  65 CALM      30.03S
MACOMB*        SUNNY     72  63  73 CALM      30.06R
JACKSONVILLE*  SUNNY     75  67  76 SW5       30.04R
PITTSFIELD*    PTSUNNY   74  67  80 S6        30.05S
$$

ILZ028>032-037-038-041>044-048-051>054-059>061-041600-
CENTRAL ILLINOIS

CITY           SKY/WX    TMP DP  RH WIND       PRES   REMARKS
PONTIAC        SUNNY     74  65  74 W3        30.03S
BLOOMINGTON    SUNNY     75  62  64 E3        30.04S
DECATUR        SUNNY     74  59  59 CALM      30.04R
PEORIA         SUNNY     77  59  53 CALM      30.03R
LACON*         SUNNY     72  59  63 CALM      30.02S
LINCOLN*       SUNNY     75  62  63 S5        30.04R
SPRINGFIELD    SUNNY     76  66  71 CALM      30.04R
TAYLORVILLE    SUNNY     72  63  73 CALM      30.04S
$$

ILZ033-039-045-046-055>057-062-063-041600-
EAST-CENTRAL ILLINOIS

CITY           SKY/WX    TMP DP  RH WIND       PRES   REMARKS
CHAMPAIGN      SUNNY     73  62  68 CALM      30.04R
DANVILLE*      SUNNY     71  63  75 CALM      30.01R
RANTOUL*       SUNNY     74  63  67 CALM      30.03S
MATTOON        SUNNY     74  60  61 CALM      30.03R
PARIS*         SUNNY     74  63  69 CALM      30.04R
$$

ILZ079-100>102-041600-
SOUTHWEST ILLINOIS

CITY           SKY/WX    TMP DP  RH WIND       PRES   REMARKS
ALTON          MOSUNNY   73 N/A N/A VRB3      30.04R
BELLEVILLE     SUNNY     77  69  78 CALM      30.02R
CAHOKIA*       SUNNY     77  66  68 NE3       30.03R
SPARTA*        SUNNY     74  67  79 CALM      30.03S
$$

ILZ064>066-069>071-074>076-080>082-084>086-088>090-092>094-041600-
SOUTH-CENTRAL ILLINOIS

CITY           SKY/WX    TMP DP  RH WIND       PRES   REMARKS
CARBONDALE     SUNNY     75  67  76 CALM      30.02R
CAIRO*         MOSUNNY   75  70  85 NE3       30.01R
EFFINGHAM*     SUNNY     74  60  62 CALM      30.05R
MARION         MOSUNNY   73  70  88 N5        30.03R
MT. VERNON     MOSUNNY   75  64  69 NE8       30.03S
CENTRALIA*     SUNNY     75  63  65 CALM      30.03S
SALEM*         SUNNY     75  65  70 CALM      30.03S
METROPOLIS*    CLOUDY    76  71  85 NE3       30.01S
$$

ILZ067-068-072-073-078-083-087-091-041600-
SOUTHEAST ILLINOIS

CITY           SKY/WX    TMP DP  RH WIND       PRES   REMARKS
LAWRENCEVILLE  MOSUNNY   74  66  76 CALM      30.02S
FLORA*         SUNNY     72  64  75 CALM      30.03S
FAIRFIELD*     MOSUNNY   74  67  78 NE6       30.01S
HARRISBURG*    SUNNY     74  70  86 E3        30.03R
ROBINSON*      PTSUNNY   74  65  72 CALM      30.03S
CARMI*         SUNNY     75  62  64 NE3       30.01S
$$

ABBREVIATIONS USED IN REMARKS
   TC - TEMPERATURE IN CELSIUS
  WCI - WIND CHILL INDEX
   HX - HEAT INDEX
  VSB - VISIBILITY
$$




USA.gov is the U.S. government's official web portal to all federal, state and local government web resources and services.